Waarnemingen

Advertentie
Mijn weer
Eskdalemuir, Groot Brittannië (3162): temperatuur & dauwpunt: 11.12.2018 00:00:00 - 17.12.2018 00:00:00 (GMT)Eskdalemuir, Groot Brittannië (3162): temperatuur -20cm & temperatuur -100cm: 11.12.2018 00:00:00 - 17.12.2018 00:00:00 (GMT)Eskdalemuir, Groot Brittannië (3162): windsnelheid & windstoten: 11.12.2018 00:00:00 - 17.12.2018 00:00:00 (GMT)Eskdalemuir, Groot Brittannië (3162): windrichting: 11.12.2018 00:00:00 - 17.12.2018 00:00:00 (GMT)Eskdalemuir, Groot Brittannië (3162): luchtdruk: 11.12.2018 00:00:00 - 17.12.2018 00:00:00 (GMT)Eskdalemuir, Groot Brittannië (3162): zicht: 11.12.2018 00:00:00 - 17.12.2018 00:00:00 (GMT)Eskdalemuir, Groot Brittannië (3162): Zonneschijnduur: 11.12.2018 00:00:00 - 17.12.2018 00:00:00 (GMT)Eskdalemuir, Groot Brittannië (3162): neerslag: 11.12.2018 00:00:00 - 17.12.2018 00:00:00 (GMT)
Datum & Tijd tt [°C] td [°C] tt -20cm [°C] tt -100cm [°C] ff [km/u] ff [kn] fx [km/u] fx [kn] dd ppp [hPa] vv [km] sd [min] rr [mm]
17.12.2018 00:00:00 3,9 3,8 - - - - - - - 1005,5 4,5 - 0,2
16.12.2018 23:00:00 3,7 3,6 - - - - - - - 1005,0 4,2 0 0,8
16.12.2018 22:00:00 3,5 3,4 - - - - - - - 1004,6 5 0 0,8
16.12.2018 21:00:00 3,6 3,5 - - - - - - - 1004,4 3,5 0 1,8
16.12.2018 20:00:00 3,5 3,4 - - - - - - - 1003,9 4,0 0 0,8
16.12.2018 19:00:00 3,4 3,2 - - - - - - - 1003,7 5 0 0,4
16.12.2018 18:00:00 4,0 3,2 - - - - - - - 1003,2 12 0 0,2
16.12.2018 17:00:00 4,4 3,6 - - - - - - - 1002,6 23 0 0,0
16.12.2018 16:00:00 4,8 4,0 - - - - - - - 1002,0 25 0 0,0
16.12.2018 15:00:00 5,0 4,1 - - - - - - - 1001,4 23 0 0,2
16.12.2018 14:00:00 5,2 4,4 - - - - - - - 1001,0 20 6 0,0
16.12.2018 13:00:00 4,6 3,8 - - - - - - - 1001,0 30 0 0,2
16.12.2018 12:00:00 4,6 3,9 - - - - - - - 1001,1 11 0 0,0
16.12.2018 11:00:00 3,5 2,9 - - - - - - - 1001,2 13 0 0,0
16.12.2018 10:00:00 3,7 2,8 - - - - - - - 1000,9 19 0 0,0
16.12.2018 09:00:00 3,8 2,6 5,0 7,7 - - - - - 999,9 21 0 0,0
16.12.2018 08:00:00 3,9 2,7 - - - - - - - 998,8 18 0 0,0
16.12.2018 07:00:00 4,0 2,6 - - - - - - - 997,7 22 0 0,0
16.12.2018 06:00:00 3,9 2,7 - - - - - - - 996,4 25 0 0,0
16.12.2018 05:00:00 3,8 2,8 - - - - - - - 995,1 19 0 1,0
16.12.2018 04:00:00 3,0 2,3 - - - - - - - 994,1 12 0 0,4
16.12.2018 03:00:00 3,3 1,7 - - - - - - - 992,6 50 0 8,4
16.12.2018 02:00:00 3,3 1,5 - - - - - - - 991,0 50 0 0,2
16.12.2018 01:00:00 1,1 0,9 - - - - - - - 988,9 8 0 0,0
16.12.2018 00:00:00 1,6 1,0 - - - - - - - 986,6 1,8 - 0,0
15.12.2018 23:00:00 1,9 0,5 - - - - - - - 986,3 45 0 0,0
15.12.2018 22:00:00 1,3 0,3 - - - - - - - 987,9 9 0 0,0
15.12.2018 21:00:00 0,8 -0,2 - - - - - - - 989,6 50 0 0,0
15.12.2018 20:00:00 0,4 -0,1 - - - - - - - 992,3 30 0 0,0
15.12.2018 19:00:00 0,6 -0,4 - - - - - - - 993,6 4,1 0 0,0
15.12.2018 18:00:00 0,4 -0,5 - - - - - - - 994,9 3,7 0 0,0
15.12.2018 17:00:00 0,4 -0,6 - - - - - - - 996,6 8 0 0,0
15.12.2018 16:00:00 0,3 -0,7 - - 0 0 - - N 998,1 4,3 0 0,0
15.12.2018 15:00:00 0,3 -0,7 - - 13 7 - - ZO 1000,5 4,8 0 0,0
15.12.2018 14:00:00 0,1 -1,1 - - 13 7 - - OZO 1002,3 5 0 0,0
15.12.2018 13:00:00 0,2 -2,3 - - 13 7 - - OZO 1004,3 7 0 0,0
15.12.2018 12:00:00 0,1 -2,6 - - 13 7 - - OZO 1005,9 8 0 0,0
15.12.2018 11:00:00 0,5 0,5 - - 13 7 - - ZO 1008,0 12 0 0,0
15.12.2018 10:00:00 0,4 -3,4 - - 13 7 - - ZO 1010,3 17 0 0,0
15.12.2018 09:00:00 0,4 -3,8 5,7 7,7 13 7 - - ZO 1011,4 19 0 0,0
15.12.2018 08:00:00 0,5 -3,8 - - 18 10 - - ZZO 1012,2 21 0 0,0
15.12.2018 07:00:00 0,3 -4,1 - - 13 7 - - ZO 1012,0 27 0 0,0
15.12.2018 06:00:00 1,0 -4,0 - - 22 12 - - ZZO 1014,0 29 0 0,0
15.12.2018 05:00:00 0,9 -4,4 - - 21 11 - - ZZO 1014,9 35 0 0,0
15.12.2018 04:00:00 0,9 -4,1 - - 22 12 - - ZZO 1015,8 35 0 0,0
15.12.2018 03:00:00 0,8 -4,2 - - 21 11 - - ZO 1016,5 30 0 0,0
15.12.2018 02:00:00 0,8 -4,4 - - 21 11 - - ZZO 1017,3 35 0 0,0
15.12.2018 01:00:00 0,8 -4,3 - - 18 10 - - ZZO 1017,4 35 0 0,0
15.12.2018 00:00:00 0,3 -4,1 - - 16 9 - - ZZO 1018,3 29 - 0,0
14.12.2018 23:00:00 0,2 -3,8 - - 16 9 - - ZZO 1018,5 27 0 0,0
14.12.2018 22:00:00 0,0 -3,7 - - 16 9 - - ZZO 1020,0 27 0 0,0
14.12.2018 21:00:00 0,2 -3,8 - - 21 11 - - ZZO 1020,4 35 0 0,0
14.12.2018 20:00:00 0,0 -3,7 - - 11 6 - - ZZO 1020,5 26 0 0,0
14.12.2018 19:00:00 -1,1 -3,7 - - 2 1 - - ZW 1020,0 26 0 0,0
14.12.2018 18:00:00 -0,6 -3,6 - - 9 5 - - ZZO 1021,0 27 0 0,0
14.12.2018 17:00:00 -1,1 -3,0 - - 4 2 - - WZW 1021,5 18 0 0,0
14.12.2018 16:00:00 -1,1 -4,0 - - 5 3 - - ZZW 1021,9 17 0 0,0
14.12.2018 15:00:00 0,5 -3,0 - - 11 6 - - ZZO 1021,7 18 48 0,0
14.12.2018 14:00:00 1,0 -2,6 - - 13 7 - - ZZO 1021,3 19 54 0,0
14.12.2018 13:00:00 1,1 -2,3 - - 11 6 - - ZZO 1021,9 23 60 0,0
14.12.2018 12:00:00 0,7 -1,9 - - 11 6 - - ZZO 1022,8 30 60 0,0
14.12.2018 11:00:00 -2,2 -2,7 - - 4 2 - - WNW 1023,3 24 48 0,0
14.12.2018 10:00:00 -4,3 -5,0 - - 4 2 - - N 1023,6 19 18 0,0
14.12.2018 09:00:00 -4,5 -5,1 6,0 7,7 4 2 - - NW 1023,3 24 0 0,0
14.12.2018 08:00:00 -4,2 -4,8 - - 5 3 - - WNW 1022,7 22 0 0,0
14.12.2018 07:00:00 -4,7 -5,3 - - 4 2 - - N 1022,5 18 0 0,0
14.12.2018 06:00:00 -4,1 -4,7 - - 4 2 - - NW 1023,0 20 0 0,0
14.12.2018 05:00:00 -4,1 -4,8 - - 4 2 - - N 1023,5 21 0 0,0
14.12.2018 04:00:00 -3,6 -4,3 - - 5 3 - - NW 1023,5 30 0 0,0
14.12.2018 03:00:00 -2,6 -3,1 - - 5 3 - - WNW 1023,8 30 0 0,0
14.12.2018 02:00:00 -3,1 -3,7 - - 4 2 - - NO 1023,5 19 0 0,0
14.12.2018 01:00:00 -2,8 -3,5 - - 4 2 - - NW 1023,2 18 0 0,0
14.12.2018 00:00:00 -2,2 -2,8 - - 5 3 - - NW 1023,3 35 - 0,0
13.12.2018 23:00:00 -2,4 -3,3 - - 5 3 - - WZW 1023,2 22 0 0,0
13.12.2018 22:00:00 -2,0 -3,1 - - 2 1 - - NW 1023,2 23 0 0,0
13.12.2018 21:00:00 -0,2 -2,0 - - 4 2 - - ZW 1022,3 30 0 0,0
13.12.2018 20:00:00 -0,3 -2,4 - - 5 3 - - NW 1022,4 50 0 0,0
13.12.2018 19:00:00 1,5 -2,0 - - 5 3 - - ZO 1021,9 50 0 0,0
13.12.2018 18:00:00 2,1 -2,2 - - 8 4 - - O 1021,4 45 0 0,0
13.12.2018 17:00:00 2,1 -1,9 - - 8 4 - - OZO 1020,7 45 0 0,0
13.12.2018 16:00:00 2,5 -2,0 - - 15 8 - - ZO 1020,1 50 0 0,0
13.12.2018 15:00:00 3,3 -2,0 - - 15 8 - - ZO 1019,4 50 24 0,0
13.12.2018 14:00:00 3,2 -2,4 - - 16 9 - - ZO 1018,5 35 0 0,0
13.12.2018 13:00:00 3,0 -2,1 - - 18 10 - - ZZO 1018,8 40 0 0,0
13.12.2018 12:00:00 2,8 -2,3 - - 15 8 - - ZZO 1019,0 40 0 0,0
13.12.2018 11:00:00 2,6 -2,1 - - 16 9 - - ZO 1019,0 30 0 0,0
13.12.2018 10:00:00 2,5 -2,8 - - 21 11 - - ZO 1019,0 40 0 0,0
13.12.2018 09:00:00 2,4 -2,7 6,4 7,9 18 10 - - ZO 1018,6 30 0 0,0
13.12.2018 08:00:00 2,4 -2,7 - - 16 9 - - ZO 1018,1 45 0 0,0
13.12.2018 07:00:00 2,7 -1,8 - - 13 7 - - ZO 1017,7 30 0 0,0
13.12.2018 06:00:00 2,8 -1,5 - - 13 7 - - ZO 1017,2 35 0 0,0
13.12.2018 05:00:00 2,4 -1,8 - - 13 7 - - ZO 1017,3 35 0 0,0
13.12.2018 04:00:00 2,1 -2,3 - - 11 6 - - ZO 1017,6 40 0 0,0
13.12.2018 03:00:00 1,8 -2,2 - - 5 3 - - ZO 1017,8 45 0 0,0
13.12.2018 02:00:00 1,9 -2,3 - - 8 4 - - ZZO 1018,2 50 0 0,0
13.12.2018 01:00:00 1,9 -2,3 - - 11 6 46 25 ZO 1018,4 40 0 0,0
13.12.2018 00:00:00 1,6 -2,4 - - 21 11 - - ZZO 1018,7 45 - 0,0
12.12.2018 23:00:00 1,6 -2,1 - - 13 7 - - ZZO 1018,4 45 0 0,0
12.12.2018 22:00:00 1,9 -1,6 - - 9 5 - - OZO 1018,1 30 0 0,0
12.12.2018 21:00:00 2,3 -0,6 - - 11 6 - - OZO 1017,9 23 0 0,0
12.12.2018 20:00:00 2,9 0,4 - - 16 9 - - ZO 1018,5 21 0 0,0
12.12.2018 19:00:00 3,7 0,8 - - 16 9 - - ZO 1018,0 24 0 0,0
12.12.2018 18:00:00 4,5 2,1 - - 13 7 - - ZO 1018,1 12 0 0,0
12.12.2018 17:00:00 4,8 2,6 - - 11 6 - - ZO 1018,6 18 0 0,0
12.12.2018 16:00:00 4,7 2,4 - - 13 7 - - ZZO 1018,5 15 0 0,0
12.12.2018 15:00:00 5,0 2,8 - - 9 5 - - ZO 1018,6 18 0 0,0
12.12.2018 14:00:00 5,8 3,0 - - 18 10 - - ZZO 1018,8 25 0 0,0
12.12.2018 13:00:00 5,7 3,0 - - 18 10 - - ZZO 1019,6 20 0 0,0
12.12.2018 12:00:00 5,5 3,3 - - 16 9 - - ZO 1019,8 18 0 0,0
12.12.2018 11:00:00 5,2 3,4 - - 9 5 - - ZO 1020,4 12 0 0,0
12.12.2018 10:00:00 3,5 2,4 - - 4 2 - - OZO 1020,7 12 0 0,0
12.12.2018 09:00:00 4,1 2,6 6,2 8,0 4 2 - - ZZW 1020,5 14 0 0,0
12.12.2018 08:00:00 4,5 2,9 - - 5 3 - - OZO 1020,2 17 0 0,0
12.12.2018 07:00:00 4,8 3,4 - - 9 5 - - ZZO 1020,0 13 0 0,0
12.12.2018 06:00:00 5,2 3,6 - - 13 7 - - ZZO 1019,6 13 0 0,0
12.12.2018 05:00:00 5,5 3,8 - - 13 7 - - ZZO 1019,2 14 0 0,0
12.12.2018 04:00:00 5,7 3,9 - - 11 6 - - ZZO 1019,5 12 0 0,0
12.12.2018 03:00:00 5,7 4,0 - - 16 9 - - ZZO 1019,9 12 0 0,0
12.12.2018 02:00:00 5,6 4,1 - - 13 7 - - ZZO 1020,0 13 0 0,0
12.12.2018 01:00:00 6,0 4,1 - - 13 7 - - ZZO 1020,0 18 0 0,0
12.12.2018 00:00:00 5,8 4,4 - - 8 4 - - ZZO 1020,1 16 - 0,0
11.12.2018 23:00:00 5,7 4,4 - - 4 2 - - OZO 1019,9 15 0 0,0
11.12.2018 22:00:00 5,8 4,5 - - 8 4 - - ZZO 1020,1 14 0 0,0
11.12.2018 21:00:00 6,0 4,8 - - 11 6 - - ZZO 1020,0 18 0 0,0
11.12.2018 20:00:00 6,0 4,7 - - 13 7 - - ZZO 1020,0 30 0 0,0
11.12.2018 19:00:00 6,3 5,2 - - 9 5 - - ZZO 1020,4 35 0 0,0
11.12.2018 18:00:00 6,5 5,6 - - 9 5 - - ZZO 1020,3 19 0 0,0
11.12.2018 17:00:00 6,0 5,8 - - 8 4 - - ZZO 1020,6 7 0 0,0
11.12.2018 16:00:00 6,1 5,9 - - 4 2 - - ZZO 1020,8 10 0 0,0
11.12.2018 15:00:00 5,9 5,9 - - 5 3 - - Z 1021,0 3,5 0 0,2
11.12.2018 14:00:00 5,7 5,6 - - 2 1 - - ZZO 1021,6 3,0 0 0,2
11.12.2018 13:00:00 5,5 5,4 - - 8 4 - - Z 1022,2 1,7 0 0,6
11.12.2018 12:00:00 5,2 5,2 - - 5 3 - - ZZO 1022,9 1,8 0 0,4
11.12.2018 11:00:00 4,9 4,9 - - 2 1 - - OZO 1023,2 1,5 0 0,2
11.12.2018 10:00:00 4,6 4,5 - - 4 2 - - WZW 1023,4 2,0 0 0,2
11.12.2018 09:00:00 3,7 3,7 6,2 8,0 2 1 - - NW 1023,4 3,5 0 0,0
11.12.2018 08:00:00 3,3 3,3 - - 2 1 - - NNO 1023,7 1,5 0 0,4
11.12.2018 07:00:00 3,2 3,2 - - 4 2 - - NNW 1023,7 1,4 0 0,0
11.12.2018 06:00:00 3,0 3,0 - - 4 2 - - NNW 1023,9 2,6 0 0,0
11.12.2018 05:00:00 2,5 2,5 - - 5 3 - - NNW 1024,1 1,6 0 0,0
11.12.2018 04:00:00 2,2 2,1 - - 2 1 - - WNW 1024,6 4,7 0 0,0
11.12.2018 03:00:00 1,9 1,7 - - 4 2 - - NNW 1025,1 30 0 0,0
11.12.2018 02:00:00 1,7 1,5 - - 2 1 - - Z 1025,3 45 0 0,0
11.12.2018 01:00:00 1,7 1,5 - - 0 0 - - N 1025,6 50 0 0,0
11.12.2018 00:00:00 1,4 1,3 - - 4 2 - - NNW 1026,3 45 - 0,0

tt = temperatuur
td = dauwpunt
tt -20cm = temperatuur -20cm
tt -100cm = temperatuur -100cm
ff = windsnelheid
fx = windstoten
dd = windrichting
ppp = luchtdruk
vv = zicht
sd = Zonneschijnduur
rr = neerslag

Weerstations in de omgeving